Orbital Elements at Epoch 2459200.5 (2020-Dec-17.0) TDB
Reference: JPL 16 (heliocentric ecliptic J2000)
Element | Value | Uncertainty (1-sigma) | Units |
e | .152629703133362 | 4.9445e-08 | |
a | 2.788976811070027 | 2.0822e-08 | au |
q | 2.363296108350578 | 1.4012e-07 | au |
i | 11.09947461569325 | 5.7372e-06 | deg |
node | 196.8185349406749 | 2.1264e-05 | deg |
peri | 330.2553845754558 | 2.5253e-05 | deg |
M | 242.8587729817287 | 1.5464e-05 | deg |
tp | 2459754.070642249360 (2022-Jun-23.57064225) | 7.5645e-05 | TDB |
period | 1701.240769645392 4.66 | 1.9051e-05 5.216e-08 | d yr |
n | .2116102590669977 | 2.3697e-09 | deg/d |
Q | 3.214657513789475 | 2.4e-08 | au |
|
| | Orbit Determination Parameters
Additional Information
|